Time,TemperatureF,DewpointF,PressureIn,WindDirection,WindDirectionDegrees,WindSpeedMPH,WindSpeedGustMPH,Humidity,HourlyPrecipIn,Conditions,Clouds,dailyrainin,SolarRadiationWatts/m^2,SoftwareType,DateUTC
2013-03-08 00:04:00,76.5,73.2,30.06,NW,309,0.0,0.0,90,0.00,,,0.04,0.0,meteohub,2013-03-08 04:04:00,
2013-03-08 00:09:00,76.5,73.2,30.06,NW,304,0.0,5.0,90,0.00,,,0.00,0.0,meteohub,2013-03-08 04:09:00,
2013-03-08 00:14:00,76.3,73.0,30.06,WNW,295,1.0,7.0,90,0.00,,,0.00,0.0,meteohub,2013-03-08 04:14:00,
2013-03-08 00:19:00,76.3,73.0,30.06,WNW,285,6.0,7.0,90,0.00,,,0.00,0.0,meteohub,2013-03-08 04:19:00,
2013-03-08 00:25:00,76.1,73.2,30.06,NW,313,0.0,7.0,91,0.00,,,0.00,0.0,meteohub,2013-03-08 04:25:00,
2013-03-08 00:30:00,75.9,73.4,30.06,NW,319,0.0,7.0,92,0.01,,,0.01,0.0,meteohub,2013-03-08 04:30:00,
2013-03-08 00:35:00,75.6,73.0,30.06,NW,320,0.0,7.0,92,0.04,,,0.04,0.0,meteohub,2013-03-08 04:35:00,
2013-03-08 00:40:00,74.8,72.7,30.06,NW,320,0.0,7.0,93,0.05,,,0.05,0.0,meteohub,2013-03-08 04:40:00,
2013-03-08 00:45:00,74.1,72.0,30.06,NW,320,0.0,5.0,93,0.06,,,0.06,0.0,meteohub,2013-03-08 04:45:00,
2013-03-08 00:50:00,73.8,72.0,30.06,NW,319,0.0,0.0,94,0.07,,,0.08,0.0,meteohub,2013-03-08 04:50:00,
2013-03-08 00:55:00,73.2,71.4,30.06,NW,319,0.0,0.0,94,0.08,,,0.08,0.0,meteohub,2013-03-08 04:55:00,
2013-03-08 01:00:00,73.2,71.4,30.05,NW,319,0.0,0.0,94,0.08,,,0.08,0.0,meteohub,2013-03-08 05:00:00,
2013-03-08 01:01:00,73.2,71.8,30.05,NW,319,0.0,0.0,95,0.08,,,0.08,0.0,meteohub,2013-03-08 05:01:00,
2013-03-08 01:06:00,73.6,72.1,30.05,NW,318,0.0,0.0,95,0.08,,,0.08,0.0,meteohub,2013-03-08 05:06:00,
2013-03-08 01:11:00,73.2,71.8,30.05,NW,319,0.0,0.0,95,0.08,,,0.08,0.0,meteohub,2013-03-08 05:11:00,
2013-03-08 01:16:00,73.2,71.8,30.04,NW,320,0.0,0.0,95,0.08,,,0.08,0.0,meteohub,2013-03-08 05:16:00,
2013-03-08 01:21:00,73.8,72.3,30.04,NW,320,0.0,0.0,95,0.08,,,0.08,0.0,meteohub,2013-03-08 05:21:00,
2013-03-08 01:26:00,73.9,72.5,30.04,NW,320,0.0,0.0,95,0.07,,,0.08,0.0,meteohub,2013-03-08 05:26:00,
2013-03-08 01:31:00,74.5,73.2,30.04,NW,319,0.0,0.0,96,0.04,,,0.08,0.0,meteohub,2013-03-08 05:31:00,
2013-03-08 01:36:00,74.5,73.2,30.04,NW,322,0.0,0.0,96,0.02,,,0.08,0.0,meteohub,2013-03-08 05:36:00,
2013-03-08 01:41:00,74.5,73.2,30.04,NW,319,0.0,0.0,96,0.02,,,0.08,0.0,meteohub,2013-03-08 05:41:00,
2013-03-08 01:46:00,74.1,72.9,30.03,NW,320,0.0,0.0,96,0.01,,,0.08,0.0,meteohub,2013-03-08 05:46:00,
2013-03-08 01:51:00,74.1,72.9,30.03,NW,316,0.0,0.0,96,0.00,,,0.08,0.0,meteohub,2013-03-08 05:51:00,
2013-03-08 01:56:00,74.1,73.2,30.03,NW,320,0.0,0.0,97,0.00,,,0.08,0.0,meteohub,2013-03-08 05:56:00,
2013-03-08 02:02:00,73.9,73.0,30.02,NW,318,0.0,0.0,97,0.00,,,0.08,0.0,meteohub,2013-03-08 06:02:00,
2013-03-08 02:07:00,73.9,73.0,30.02,NW,319,0.0,0.0,97,0.00,,,0.08,0.0,meteohub,2013-03-08 06:07:00,
2013-03-08 02:12:00,73.9,73.0,30.02,NW,318,0.0,0.0,97,0.00,,,0.08,0.0,meteohub,2013-03-08 06:12:00,
2013-03-08 02:17:00,73.8,72.9,30.02,NW,318,0.0,0.0,97,0.00,,,0.08,0.0,meteohub,2013-03-08 06:17:00,
2013-03-08 02:22:00,73.8,72.9,30.02,NW,318,0.0,0.0,97,0.00,,,0.08,0.0,meteohub,2013-03-08 06:22:00,
2013-03-08 02:27:00,73.6,72.7,30.02,NW,318,0.0,0.0,97,0.00,,,0.08,0.0,meteohub,2013-03-08 06:27:00,
2013-03-08 02:32:00,73.2,72.3,30.02,NW,319,0.0,0.0,97,0.00,,,0.08,0.0,meteohub,2013-03-08 06:32:00,
2013-03-08 02:37:00,73.6,72.7,30.02,NW,318,0.0,0.0,97,0.00,,,0.08,0.0,meteohub,2013-03-08 06:37:00,
2013-03-08 02:42:00,73.2,72.3,30.02,NW,318,0.0,0.0,97,0.00,,,0.08,0.0,meteohub,2013-03-08 06:42:00,
2013-03-08 02:47:00,73.8,72.9,30.01,NW,316,0.0,0.0,97,0.00,,,0.08,0.0,meteohub,2013-03-08 06:47:00,
2013-03-08 02:52:00,73.6,72.7,30.01,NW,318,0.0,0.0,97,0.00,,,0.08,0.0,meteohub,2013-03-08 06:52:00,
2013-03-08 02:57:00,73.2,72.3,30.01,NW,318,0.0,0.0,97,0.00,,,0.08,0.0,meteohub,2013-03-08 06:57:00,
2013-03-08 03:02:00,73.2,72.3,30.01,NW,318,0.0,0.0,97,0.00,,,0.08,0.0,meteohub,2013-03-08 07:02:00,
2013-03-08 03:07:00,73.2,72.3,30.01,NW,318,0.0,0.0,97,0.00,,,0.08,0.0,meteohub,2013-03-08 07:07:00,
2013-03-08 03:12:00,73.0,72.1,30.01,NW,318,0.0,0.0,97,0.00,,,0.08,0.0,meteohub,2013-03-08 07:12:00,
2013-03-08 03:17:00,72.9,72.0,30.01,NW,318,0.0,0.0,97,0.00,,,0.08,0.0,meteohub,2013-03-08 07:17:00,
2013-03-08 03:22:00,72.7,71.8,30.01,NW,318,0.0,0.0,97,0.00,,,0.08,0.0,meteohub,2013-03-08 07:22:00,
2013-03-08 03:27:00,72.9,72.0,30.01,NW,318,0.0,0.0,97,0.00,,,0.08,0.0,meteohub,2013-03-08 07:27:00,
2013-03-08 03:32:00,72.9,72.0,30.01,NW,318,0.0,0.0,97,0.00,,,0.08,0.0,meteohub,2013-03-08 07:32:00,
2013-03-08 03:38:00,73.0,72.1,30.01,NW,318,0.0,0.0,97,0.00,,,0.08,0.0,meteohub,2013-03-08 07:38:00,
2013-03-08 03:43:00,73.0,72.1,30.01,NW,318,0.0,0.0,97,0.00,,,0.08,0.0,meteohub,2013-03-08 07:43:00,
2013-03-08 03:48:00,72.9,72.0,30.01,NW,318,0.0,0.0,97,0.00,,,0.08,0.0,meteohub,2013-03-08 07:48:00,
2013-03-08 03:53:00,72.9,72.0,30.01,NW,318,0.0,0.0,97,0.00,,,0.08,0.0,meteohub,2013-03-08 07:53:00,
2013-03-08 03:58:00,72.7,71.8,30.01,NW,318,0.0,0.0,97,0.00,,,0.08,0.0,meteohub,2013-03-08 07:58:00,
2013-03-08 04:03:00,72.7,71.8,30.01,NW,318,0.0,0.0,97,0.00,,,0.08,0.0,meteohub,2013-03-08 08:03:00,
2013-03-08 04:08:00,72.7,71.8,30.01,NW,318,0.0,0.0,97,0.00,,,0.08,0.0,meteohub,2013-03-08 08:08:00,
2013-03-08 04:13:00,72.9,72.0,30.01,NW,316,0.0,0.0,97,0.00,,,0.08,0.0,meteohub,2013-03-08 08:13:00,
2013-03-08 04:18:00,72.7,71.8,30.01,NW,318,0.0,0.0,97,0.00,,,0.08,0.0,meteohub,2013-03-08 08:18:00,
2013-03-08 04:23:00,72.7,72.1,30.01,NW,319,0.0,0.0,98,0.00,,,0.08,0.0,meteohub,2013-03-08 08:23:00,
2013-03-08 04:28:00,72.7,72.1,30.01,NW,319,0.0,0.0,98,0.00,,,0.08,0.0,meteohub,2013-03-08 08:28:00,
2013-03-08 04:33:00,72.7,72.1,30.01,NW,318,0.0,0.0,98,0.00,,,0.08,0.0,meteohub,2013-03-08 08:33:00,
2013-03-08 04:38:00,72.5,72.0,30.01,NW,318,0.0,0.0,98,0.00,,,0.08,0.0,meteohub,2013-03-08 08:38:00,
2013-03-08 04:43:00,72.7,72.1,30.01,NW,318,0.0,0.0,98,0.00,,,0.08,0.0,meteohub,2013-03-08 08:43:00,
2013-03-08 04:48:00,72.7,72.1,30.01,NW,319,0.0,0.0,98,0.00,,,0.08,0.0,meteohub,2013-03-08 08:48:00,
2013-03-08 04:53:00,72.7,72.1,30.01,NW,318,0.0,0.0,98,0.00,,,0.08,0.0,meteohub,2013-03-08 08:53:00,
2013-03-08 04:58:00,72.5,72.0,30.01,NW,318,0.0,0.0,98,0.00,,,0.08,0.0,meteohub,2013-03-08 08:58:00,
2013-03-08 05:03:00,72.7,72.1,30.01,NW,318,0.0,0.0,98,0.00,,,0.08,0.0,meteohub,2013-03-08 09:03:00,
2013-03-08 05:08:00,72.7,72.1,30.01,NW,318,0.0,0.0,98,0.00,,,0.08,0.0,meteohub,2013-03-08 09:08:00,
2013-03-08 05:13:00,72.7,72.1,30.01,NW,318,0.0,0.0,98,0.00,,,0.08,0.0,meteohub,2013-03-08 09:13:00,
2013-03-08 05:18:00,72.7,72.1,30.01,NW,318,0.0,0.0,98,0.00,,,0.08,0.0,meteohub,2013-03-08 09:18:00,
2013-03-08 05:23:00,72.7,72.1,30.01,NW,318,0.0,0.0,98,0.00,,,0.08,0.0,meteohub,2013-03-08 09:23:00,
2013-03-08 05:28:00,72.7,72.1,30.02,NW,318,0.0,0.0,98,0.00,,,0.08,0.0,meteohub,2013-03-08 09:28:00,
2013-03-08 05:33:00,72.7,72.1,30.02,NW,318,0.0,0.0,98,0.00,,,0.08,0.0,meteohub,2013-03-08 09:33:00,
2013-03-08 05:38:00,72.7,72.1,30.02,NW,318,0.0,0.0,98,0.00,,,0.08,0.0,meteohub,2013-03-08 09:38:00,
2013-03-08 05:44:00,72.7,72.1,30.02,NW,318,0.0,0.0,98,0.00,,,0.08,0.0,meteohub,2013-03-08 09:44:00,
2013-03-08 05:49:00,72.7,72.1,30.02,NW,318,0.0,0.0,98,0.00,,,0.08,0.0,meteohub,2013-03-08 09:49:00,
2013-03-08 05:54:00,72.7,72.1,30.02,NW,318,0.0,0.0,98,0.00,,,0.08,0.0,meteohub,2013-03-08 09:54:00,
2013-03-08 05:59:00,72.9,72.3,30.02,NW,318,0.0,0.0,98,0.00,,,0.08,0.0,meteohub,2013-03-08 09:59:00,
2013-03-08 06:04:00,72.9,72.3,30.02,NW,318,0.0,0.0,98,0.00,,,0.08,0.0,meteohub,2013-03-08 10:04:00,
2013-03-08 06:09:00,72.9,72.3,30.02,NW,319,0.0,0.0,98,0.00,,,0.08,0.0,meteohub,2013-03-08 10:09:00,
2013-03-08 06:14:00,72.9,72.3,30.03,NW,319,0.0,0.0,98,0.00,,,0.08,0.0,meteohub,2013-03-08 10:14:00,
2013-03-08 06:19:00,73.0,72.5,30.03,NW,318,0.0,0.0,98,0.00,,,0.08,0.0,meteohub,2013-03-08 10:19:00,
2013-03-08 06:24:00,73.2,72.7,30.03,NW,318,0.0,0.0,98,0.00,,,0.08,0.0,meteohub,2013-03-08 10:24:00,
2013-03-08 06:29:00,73.2,72.7,30.04,NW,318,0.0,0.0,98,0.00,,,0.08,0.0,meteohub,2013-03-08 10:29:00,
2013-03-08 06:34:00,73.2,72.7,30.04,NW,318,0.0,0.0,98,0.00,,,0.08,0.0,meteohub,2013-03-08 10:34:00,
2013-03-08 06:39:00,73.2,72.7,30.04,NW,318,0.0,0.0,98,0.00,,,0.08,0.0,meteohub,2013-03-08 10:39:00,
2013-03-08 06:44:00,73.2,72.7,30.04,NW,318,0.0,0.0,98,0.00,,,0.08,0.0,meteohub,2013-03-08 10:44:00,
2013-03-08 06:49:00,73.6,73.0,30.04,NW,318,0.0,0.0,98,0.00,,,0.08,7.0,meteohub,2013-03-08 10:49:00,
2013-03-08 06:55:00,73.6,73.0,30.04,NW,318,0.0,0.0,98,0.00,,,0.08,14.0,meteohub,2013-03-08 10:55:00,
2013-03-08 07:00:00,73.8,73.2,30.04,NW,318,0.0,0.0,98,0.00,,,0.08,19.0,meteohub,2013-03-08 11:00:00,
2013-03-08 07:05:00,73.8,73.2,30.04,NW,318,0.0,0.0,98,0.00,,,0.08,21.0,meteohub,2013-03-08 11:05:00,
2013-03-08 07:10:00,73.9,73.4,30.04,NW,318,0.0,0.0,98,0.00,,,0.08,14.0,meteohub,2013-03-08 11:10:00,
2013-03-08 07:15:00,73.9,73.4,30.05,NW,318,0.0,1.0,98,0.00,,,0.08,7.0,meteohub,2013-03-08 11:15:00,
2013-03-08 07:20:00,73.9,73.0,30.05,NW,318,0.0,1.0,97,0.00,,,0.08,7.0,meteohub,2013-03-08 11:20:00,
2013-03-08 07:25:00,73.8,72.9,30.05,NW,318,0.0,1.0,97,0.00,,,0.08,9.0,meteohub,2013-03-08 11:25:00,
2013-03-08 07:30:00,73.9,73.0,30.06,NW,318,0.0,0.0,97,0.00,,,0.08,16.0,meteohub,2013-03-08 11:30:00,
2013-03-08 07:35:00,73.9,73.0,30.06,NW,318,0.0,0.0,97,0.00,,,0.08,39.0,meteohub,2013-03-08 11:35:00,
2013-03-08 07:40:00,73.9,73.0,30.06,NW,318,0.0,0.0,97,0.00,,,0.08,42.0,meteohub,2013-03-08 11:40:00,
2013-03-08 07:45:00,73.9,73.0,30.06,NW,318,0.0,0.0,97,0.00,,,0.08,63.0,meteohub,2013-03-08 11:45:00,
2013-03-08 07:50:00,73.9,73.0,30.06,NW,318,0.0,0.0,97,0.00,,,0.08,65.0,meteohub,2013-03-08 11:50:00,
2013-03-08 07:55:00,74.5,73.6,30.06,NW,318,0.0,0.0,97,0.00,,,0.08,155.0,meteohub,2013-03-08 11:55:00,
2013-03-08 08:00:00,74.8,73.9,30.07,NW,316,0.0,0.0,97,0.00,,,0.08,121.0,meteohub,2013-03-08 12:00:00,
2013-03-08 08:05:00,75.0,73.8,30.07,NW,318,0.0,1.0,96,0.00,,,0.08,132.0,meteohub,2013-03-08 12:05:00,
2013-03-08 08:10:00,75.0,73.8,30.07,NW,318,0.0,1.0,96,0.00,,,0.08,111.0,meteohub,2013-03-08 12:10:00,
2013-03-08 08:15:00,75.0,73.4,30.07,NW,318,0.0,0.0,95,0.00,,,0.08,134.0,meteohub,2013-03-08 12:15:00,
2013-03-08 08:20:00,75.6,73.9,30.07,NW,318,0.0,0.0,95,0.00,,,0.08,371.0,meteohub,2013-03-08 12:20:00,
2013-03-08 08:26:00,75.7,74.1,30.07,NW,318,0.0,0.0,95,0.00,,,0.08,364.0,meteohub,2013-03-08 12:26:00,
2013-03-08 08:31:00,76.1,74.3,30.07,NW,318,0.0,0.0,94,0.00,,,0.08,246.0,meteohub,2013-03-08 12:31:00,
2013-03-08 08:36:00,76.3,73.8,30.07,NW,318,0.0,0.0,92,0.00,,,0.08,241.0,meteohub,2013-03-08 12:36:00,
2013-03-08 08:41:00,76.3,73.8,30.07,NW,319,0.0,0.0,92,0.00,,,0.08,510.0,meteohub,2013-03-08 12:41:00,
2013-03-08 08:46:00,77.0,74.1,30.08,NW,318,0.0,0.0,91,0.00,,,0.08,276.0,meteohub,2013-03-08 12:46:00,
2013-03-08 08:51:00,77.7,74.5,30.08,NW,318,0.0,0.0,90,0.00,,,0.08,313.0,meteohub,2013-03-08 12:51:00,
2013-03-08 08:56:00,78.3,74.5,30.08,NNW,330,0.0,0.0,88,0.00,,,0.08,487.0,meteohub,2013-03-08 12:56:00,
2013-03-08 09:01:00,78.3,73.8,30.08,NE,34,0.0,2.0,86,0.00,,,0.08,547.0,meteohub,2013-03-08 13:01:00,
2013-03-08 09:06:00,78.6,73.4,30.08,NE,45,0.0,7.0,84,0.00,,,0.08,473.0,meteohub,2013-03-08 13:06:00,
2013-03-08 09:11:00,79.0,73.8,30.08,NE,47,5.0,7.0,84,0.00,,,0.08,164.0,meteohub,2013-03-08 13:11:00,
2013-03-08 09:16:00,78.3,72.3,30.09,NNE,30,2.0,7.0,82,0.00,,,0.08,91.0,meteohub,2013-03-08 13:16:00,
2013-03-08 09:21:00,78.1,72.1,30.09,NNE,17,0.0,8.0,82,0.00,,,0.08,95.0,meteohub,2013-03-08 13:21:00,
2013-03-08 09:27:00,77.9,72.0,30.09,North,0,0.0,8.0,82,0.00,,,0.08,113.0,meteohub,2013-03-08 13:27:00,
2013-03-08 09:32:00,77.7,71.8,30.09,North,359,6.0,8.0,82,0.00,,,0.08,121.0,meteohub,2013-03-08 13:32:00,
2013-03-08 09:37:00,77.5,71.6,30.09,North,6,0.0,8.0,82,0.00,,,0.08,158.0,meteohub,2013-03-08 13:37:00,
2013-03-08 09:42:00,77.5,71.6,30.09,North,6,0.0,8.0,82,0.00,,,0.08,197.0,meteohub,2013-03-08 13:42:00,
2013-03-08 09:47:00,77.5,71.2,30.09,North,10,6.0,8.0,81,0.00,,,0.08,199.0,meteohub,2013-03-08 13:47:00,
2013-03-08 09:52:00,77.7,71.4,30.09,North,10,0.0,8.0,81,0.00,,,0.08,255.0,meteohub,2013-03-08 13:52:00,
2013-03-08 09:57:00,78.1,71.4,30.09,NNE,18,0.0,7.0,80,0.00,,,0.08,324.0,meteohub,2013-03-08 13:57:00,
2013-03-08 10:02:00,78.6,71.6,30.09,NE,34,0.0,7.0,79,0.00,,,0.08,385.0,meteohub,2013-03-08 14:02:00,
2013-03-08 10:07:00,79.3,72.0,30.09,NNE,24,0.0,8.0,78,0.00,,,0.08,873.0,meteohub,2013-03-08 14:07:00,
2013-03-08 10:12:00,79.9,72.0,30.09,North,7,1.0,8.0,77,0.00,,,0.08,385.0,meteohub,2013-03-08 14:12:00,
2013-03-08 10:17:00,80.4,72.5,30.09,North,0,6.0,8.0,77,0.00,,,0.08,866.0,meteohub,2013-03-08 14:17:00,
2013-03-08 10:22:00,81.0,72.3,30.09,North,0,0.0,10.0,75,0.00,,,0.08,785.0,meteohub,2013-03-08 14:22:00,
2013-03-08 10:27:00,81.7,73.0,30.09,North,0,6.0,10.0,75,0.00,,,0.08,486.0,meteohub,2013-03-08 14:27:00,
2013-03-08 10:32:00,81.1,72.1,30.09,North,356,1.0,10.0,74,0.00,,,0.08,422.0,meteohub,2013-03-08 14:32:00,
2013-03-08 10:37:00,81.0,72.0,30.09,NNW,346,0.0,8.0,74,0.00,,,0.08,442.0,meteohub,2013-03-08 14:37:00,
2013-03-08 10:42:00,80.4,70.9,30.09,NNW,343,0.0,8.0,73,0.00,,,0.08,496.0,meteohub,2013-03-08 14:42:00,
2013-03-08 10:48:00,80.2,71.6,30.09,North,354,0.0,8.0,75,0.00,,,0.08,421.0,meteohub,2013-03-08 14:48:00,
2013-03-08 10:53:00,80.4,71.8,30.09,ENE,65,0.0,8.0,75,0.00,,,0.08,554.0,meteohub,2013-03-08 14:53:00,
2013-03-08 10:58:00,81.0,72.0,30.09,North,0,0.0,8.0,74,0.00,,,0.08,436.0,meteohub,2013-03-08 14:58:00,
2013-03-08 11:03:00,81.1,72.1,30.09,NE,37,8.0,8.0,74,0.00,,,0.08,874.0,meteohub,2013-03-08 15:03:00,
2013-03-08 11:08:00,82.0,72.9,30.09,North,359,2.0,8.0,74,0.00,,,0.08,1059.0,meteohub,2013-03-08 15:08:00,
2013-03-08 11:13:00,82.2,72.7,30.09,NNE,24,5.0,8.0,73,0.00,,,0.08,1059.0,meteohub,2013-03-08 15:13:00,
2013-03-08 11:18:00,82.0,72.5,30.09,North,1,8.0,12.0,73,0.00,,,0.08,612.0,meteohub,2013-03-08 15:18:00,
2013-03-08 11:23:00,81.3,71.4,30.09,North,356,7.0,12.0,72,0.00,,,0.08,445.0,meteohub,2013-03-08 15:23:00,
2013-03-08 11:28:00,81.1,71.6,30.09,NNE,20,0.0,10.0,73,0.00,,,0.08,489.0,meteohub,2013-03-08 15:28:00,
2013-03-08 11:33:00,81.1,71.6,30.09,North,8,1.0,10.0,73,0.00,,,0.08,421.0,meteohub,2013-03-08 15:33:00,
2013-03-08 11:38:00,81.1,71.6,30.09,North,0,0.0,8.0,73,0.00,,,0.08,465.0,meteohub,2013-03-08 15:38:00,
2013-03-08 11:43:00,81.0,71.4,30.08,North,1,0.0,13.0,73,0.00,,,0.08,408.0,meteohub,2013-03-08 15:43:00,
2013-03-08 11:48:00,81.0,72.0,30.08,North,7,3.0,13.0,74,0.00,,,0.08,968.0,meteohub,2013-03-08 15:48:00,
2013-03-08 11:53:00,81.1,71.6,30.08,NNE,24,2.0,13.0,73,0.00,,,0.08,354.0,meteohub,2013-03-08 15:53:00,
2013-03-08 11:58:00,80.8,71.2,30.07,North,0,4.0,10.0,73,0.00,,,0.08,285.0,meteohub,2013-03-08 15:58:00,
2013-03-08 12:03:00,81.1,71.6,30.07,NNE,32,6.0,10.0,73,0.00,,,0.08,285.0,meteohub,2013-03-08 16:03:00,
2013-03-08 12:08:00,81.7,71.8,30.07,North,1,0.0,11.0,72,0.00,,,0.08,285.0,meteohub,2013-03-08 16:08:00,
2013-03-08 12:13:00,82.0,71.8,30.06,ENE,64,3.0,11.0,71,0.00,,,0.08,370.0,meteohub,2013-03-08 16:13:00,
2013-03-08 12:18:00,81.7,71.8,30.06,North,353,0.0,11.0,72,0.00,,,0.08,436.0,meteohub,2013-03-08 16:18:00,
2013-03-08 12:23:00,81.3,71.1,30.06,North,357,8.0,11.0,71,0.00,,,0.08,317.0,meteohub,2013-03-08 16:23:00,
2013-03-08 12:29:00,81.9,71.6,30.06,North,0,7.0,11.0,71,0.00,,,0.08,1202.0,meteohub,2013-03-08 16:29:00,
2013-03-08 12:34:00,82.0,71.2,30.06,NNE,14,10.0,10.0,70,0.00,,,0.08,456.0,meteohub,2013-03-08 16:34:00,
2013-03-08 12:39:00,82.0,71.8,30.06,NE,41,5.0,10.0,71,0.00,,,0.08,897.0,meteohub,2013-03-08 16:39:00,
2013-03-08 12:44:00,82.2,71.4,30.05,NE,35,0.0,11.0,70,0.00,,,0.08,808.0,meteohub,2013-03-08 16:44:00,
2013-03-08 12:49:00,81.9,71.1,30.05,North,0,4.0,11.0,70,0.00,,,0.08,345.0,meteohub,2013-03-08 16:49:00,
2013-03-08 12:54:00,82.6,71.8,30.05,NNE,14,6.0,12.0,70,0.00,,,0.08,1028.0,meteohub,2013-03-08 16:54:00,
2013-03-08 12:59:00,82.8,71.6,30.04,NNW,340,7.0,12.0,69,0.00,,,0.08,864.0,meteohub,2013-03-08 16:59:00,
2013-03-08 13:04:00,82.9,71.8,30.04,North,0,6.0,12.0,69,0.00,,,0.08,519.0,meteohub,2013-03-08 17:04:00,
2013-03-08 13:09:00,82.6,71.4,30.04,NE,34,3.0,10.0,69,0.00,,,0.08,519.0,meteohub,2013-03-08 17:09:00,
2013-03-08 13:14:00,82.6,71.8,30.04,North,6,0.0,11.0,70,0.00,,,0.08,530.0,meteohub,2013-03-08 17:14:00,
2013-03-08 13:19:00,82.9,71.8,30.04,NNE,31,0.0,11.0,69,0.00,,,0.08,1050.0,meteohub,2013-03-08 17:19:00,
2013-03-08 13:24:00,83.5,71.4,30.04,NNE,32,3.0,13.0,67,0.00,,,0.08,1050.0,meteohub,2013-03-08 17:24:00,
2013-03-08 13:29:00,83.1,71.4,30.04,NNE,30,6.0,13.0,68,0.00,,,0.08,572.0,meteohub,2013-03-08 17:29:00,
2013-03-08 13:34:00,82.8,71.1,30.04,ENE,64,3.0,13.0,68,0.00,,,0.08,405.0,meteohub,2013-03-08 17:34:00,
2013-03-08 13:39:00,82.2,71.1,30.04,NNE,28,0.0,11.0,69,0.00,,,0.08,283.0,meteohub,2013-03-08 17:39:00,
2013-03-08 13:44:00,81.9,71.1,30.04,North,7,6.0,11.0,70,0.00,,,0.08,294.0,meteohub,2013-03-08 17:44:00,
2013-03-08 13:49:00,81.1,70.9,30.04,North,1,7.0,11.0,71,0.00,,,0.08,341.0,meteohub,2013-03-08 17:49:00,
2013-03-08 13:54:00,81.1,70.3,30.04,North,4,0.0,8.0,70,0.00,,,0.08,294.0,meteohub,2013-03-08 17:54:00,
2013-03-08 13:59:00,81.1,70.3,30.04,North,357,2.0,9.0,70,0.00,,,0.08,348.0,meteohub,2013-03-08 17:59:00,
2013-03-08 14:04:00,81.1,70.9,30.04,NNE,21,0.0,9.0,71,0.00,,,0.08,413.0,meteohub,2013-03-08 18:04:00,
2013-03-08 14:09:00,81.1,70.9,30.04,North,1,0.0,9.0,71,0.00,,,0.08,345.0,meteohub,2013-03-08 18:09:00,
2013-03-08 14:14:00,81.0,70.7,30.03,North,359,0.0,12.0,71,0.00,,,0.08,331.0,meteohub,2013-03-08 18:14:00,
2013-03-08 14:20:00,81.1,71.2,30.03,NNE,17,7.0,12.0,72,0.00,,,0.08,639.0,meteohub,2013-03-08 18:20:00,
2013-03-08 14:25:00,81.1,70.9,30.03,NE,35,5.0,12.0,71,0.00,,,0.08,380.0,meteohub,2013-03-08 18:25:00,
2013-03-08 14:30:00,81.1,70.9,30.02,North,3,1.0,11.0,71,0.00,,,0.08,470.0,meteohub,2013-03-08 18:30:00,
2013-03-08 14:35:00,81.3,71.1,30.02,ENE,61,6.0,12.0,71,0.00,,,0.08,364.0,meteohub,2013-03-08 18:35:00,
2013-03-08 14:40:00,81.3,70.5,30.02,NE,42,3.0,12.0,70,0.00,,,0.08,357.0,meteohub,2013-03-08 18:40:00,
2013-03-08 14:45:00,81.7,71.4,30.02,ENE,58,3.0,11.0,71,0.00,,,0.08,727.0,meteohub,2013-03-08 18:45:00,
2013-03-08 14:50:00,81.7,71.4,30.02,ENE,61,0.0,11.0,71,0.00,,,0.08,735.0,meteohub,2013-03-08 18:50:00,
2013-03-08 14:55:00,82.2,71.1,30.02,North,0,0.0,11.0,69,0.00,,,0.08,746.0,meteohub,2013-03-08 18:55:00,
2013-03-08 15:00:00,82.2,71.1,30.01,NE,41,0.0,11.0,69,0.00,,,0.08,197.0,meteohub,2013-03-08 19:00:00,
2013-03-08 15:05:00,81.3,70.2,30.01,NE,55,10.0,10.0,69,0.00,,,0.08,195.0,meteohub,2013-03-08 19:05:00,
2013-03-08 15:10:00,80.8,70.2,30.01,NNE,14,0.0,12.0,70,0.00,,,0.08,208.0,meteohub,2013-03-08 19:10:00,
2013-03-08 15:15:00,80.2,69.6,30.01,NNE,25,0.0,12.0,70,0.00,,,0.08,164.0,meteohub,2013-03-08 19:15:00,
2013-03-08 15:20:00,80.4,70.5,30.01,ENE,58,0.0,11.0,72,0.00,,,0.08,225.0,meteohub,2013-03-08 19:20:00,
2013-03-08 15:25:00,80.8,70.5,30.01,NNE,30,5.0,11.0,71,0.00,,,0.08,209.0,meteohub,2013-03-08 19:25:00,
2013-03-08 15:30:00,80.8,70.5,30.01,North,354,2.0,11.0,71,0.00,,,0.08,190.0,meteohub,2013-03-08 19:30:00,
2013-03-08 15:35:00,80.2,70.0,30.01,North,0,3.0,11.0,71,0.00,,,0.08,151.0,meteohub,2013-03-08 19:35:00,
2013-03-08 15:40:00,80.1,70.2,30.01,NNE,16,0.0,10.0,72,0.00,,,0.08,95.0,meteohub,2013-03-08 19:40:00,
2013-03-08 15:45:00,79.9,70.5,30.01,NNE,13,6.0,8.0,73,0.00,,,0.08,90.0,meteohub,2013-03-08 19:45:00,
2013-03-08 15:50:00,79.3,70.0,30.01,NE,35,0.0,7.0,73,0.00,,,0.08,63.0,meteohub,2013-03-08 19:50:00,
2013-03-08 15:55:00,79.3,70.0,30.01,NE,35,0.0,7.0,73,0.00,,,0.08,55.0,meteohub,2013-03-08 19:55:00,
2013-03-08 16:01:00,79.2,69.8,30.01,ENE,59,0.0,7.0,73,0.00,,,0.08,65.0,meteohub,2013-03-08 20:01:00,
2013-03-08 16:06:00,79.0,69.6,30.01,NE,44,0.0,7.0,73,0.00,,,0.08,72.0,meteohub,2013-03-08 20:06:00,
2013-03-08 16:11:00,79.0,69.6,30.01,NE,42,0.0,7.0,73,0.00,,,0.08,49.0,meteohub,2013-03-08 20:11:00,
2013-03-08 16:16:00,79.0,70.0,30.02,NNE,31,3.0,8.0,74,0.00,,,0.08,51.0,meteohub,2013-03-08 20:16:00,
2013-03-08 16:21:00,78.8,69.8,30.02,North,10,0.0,8.0,74,0.00,,,0.08,74.0,meteohub,2013-03-08 20:21:00,
2013-03-08 16:26:00,79.0,70.0,30.02,NNE,18,0.0,8.0,74,0.00,,,0.08,83.0,meteohub,2013-03-08 20:26:00,
2013-03-08 16:31:00,79.0,70.0,30.02,NE,55,0.0,7.0,74,0.00,,,0.08,79.0,meteohub,2013-03-08 20:31:00,
2013-03-08 16:36:00,79.0,69.6,30.02,NE,52,0.0,5.0,73,0.00,,,0.08,100.0,meteohub,2013-03-08 20:36:00,
2013-03-08 16:41:00,79.0,69.6,30.02,NE,44,0.0,3.0,73,0.00,,,0.08,77.0,meteohub,2013-03-08 20:41:00,
2013-03-08 16:46:00,79.0,69.3,30.02,NE,44,0.0,3.0,72,0.00,,,0.08,55.0,meteohub,2013-03-08 20:46:00,
2013-03-08 16:51:00,78.8,69.1,30.02,NE,49,0.0,3.0,72,0.00,,,0.08,62.0,meteohub,2013-03-08 20:51:00,
2013-03-08 16:57:00,78.8,68.5,30.02,NNE,23,0.0,6.0,71,0.00,,,0.08,42.0,meteohub,2013-03-08 20:57:00,
2013-03-08 17:02:00,79.0,69.3,30.02,NNE,21,0.0,6.0,72,0.00,,,0.08,25.0,meteohub,2013-03-08 21:02:00,
2013-03-08 17:07:00,78.8,69.4,30.02,NNE,21,0.0,6.0,73,0.00,,,0.08,21.0,meteohub,2013-03-08 21:07:00,
2013-03-08 17:12:00,78.6,68.9,30.02,NNE,21,0.0,0.0,72,0.00,,,0.08,19.0,meteohub,2013-03-08 21:12:00,
2013-03-08 17:17:00,78.6,68.9,30.03,NNE,21,0.0,0.0,72,0.00,,,0.08,25.0,meteohub,2013-03-08 21:17:00,
2013-03-08 17:22:00,78.6,69.3,30.03,NNE,23,0.0,0.0,73,0.00,,,0.08,25.0,meteohub,2013-03-08 21:22:00,
2013-03-08 17:27:00,78.6,69.3,30.03,NNE,23,0.0,0.0,73,0.00,,,0.08,21.0,meteohub,2013-03-08 21:27:00,
2013-03-08 17:32:00,78.6,68.9,30.03,NNE,23,0.0,0.0,72,0.00,,,0.08,19.0,meteohub,2013-03-08 21:32:00,
2013-03-08 17:37:00,78.6,68.9,30.03,NNE,23,1.0,0.0,72,0.00,,,0.08,14.0,meteohub,2013-03-08 21:37:00,
2013-03-08 17:42:00,78.8,68.5,30.03,NNE,18,0.0,1.0,71,0.00,,,0.08,14.0,meteohub,2013-03-08 21:42:00,
2013-03-08 17:47:00,78.8,68.2,30.03,NNE,18,0.0,1.0,70,0.00,,,0.08,16.0,meteohub,2013-03-08 21:47:00,
2013-03-08 17:52:00,77.9,67.3,30.03,NNW,337,0.0,1.0,70,0.00,,,0.08,14.0,meteohub,2013-03-08 21:52:00,
2013-03-08 17:57:00,77.4,66.7,30.03,WNW,288,0.0,1.0,70,0.00,,,0.08,11.0,meteohub,2013-03-08 21:57:00,
2013-03-08 18:02:00,77.0,66.9,30.04,WNW,289,0.0,2.0,71,0.00,,,0.08,7.0,meteohub,2013-03-08 22:02:00,
2013-03-08 18:07:00,76.8,66.7,30.04,West,261,0.0,2.0,71,0.00,,,0.08,5.0,meteohub,2013-03-08 22:07:00,
2013-03-08 18:12:00,76.6,66.6,30.04,West,261,0.0,6.0,71,0.00,,,0.08,0.0,meteohub,2013-03-08 22:12:00,
2013-03-08 18:17:00,76.5,66.4,30.04,West,260,0.0,6.0,71,0.00,,,0.08,0.0,meteohub,2013-03-08 22:17:00,
2013-03-08 18:22:00,76.5,66.0,30.04,West,260,0.0,1.0,70,0.00,,,0.08,0.0,meteohub,2013-03-08 22:22:00,
2013-03-08 18:27:00,76.6,66.6,30.04,West,260,0.0,1.0,71,0.00,,,0.08,0.0,meteohub,2013-03-08 22:27:00,
2013-03-08 18:32:00,76.5,66.4,30.04,West,260,0.0,1.0,71,0.00,,,0.08,0.0,meteohub,2013-03-08 22:32:00,
2013-03-08 18:37:00,76.5,66.4,30.04,West,260,0.0,0.0,71,0.00,,,0.08,0.0,meteohub,2013-03-08 22:37:00,
2013-03-08 18:43:00,76.5,66.4,30.04,WSW,258,3.0,3.0,71,0.00,,,0.08,0.0,meteohub,2013-03-08 22:43:00,
2013-03-08 18:48:00,76.6,65.7,30.04,WSW,258,0.0,4.0,69,0.00,,,0.08,0.0,meteohub,2013-03-08 22:48:00,
2013-03-08 18:53:00,76.6,65.7,30.04,WSW,258,0.0,4.0,69,0.00,,,0.08,0.0,meteohub,2013-03-08 22:53:00,
2013-03-08 18:58:00,76.8,64.6,30.04,West,275,0.0,4.0,66,0.00,,,0.08,0.0,meteohub,2013-03-08 22:58:00,
2013-03-08 19:03:00,77.0,64.4,30.04,West,274,0.0,1.0,65,0.00,,,0.08,0.0,meteohub,2013-03-08 23:03:00,
2013-03-08 19:08:00,77.2,64.9,30.04,West,275,0.0,1.0,66,0.00,,,0.08,0.0,meteohub,2013-03-08 23:08:00,
2013-03-08 19:13:00,77.2,64.9,30.04,West,275,0.0,1.0,66,0.00,,,0.08,0.0,meteohub,2013-03-08 23:13:00,
2013-03-08 19:18:00,77.2,64.0,30.04,West,277,0.0,0.0,64,0.00,,,0.08,0.0,meteohub,2013-03-08 23:18:00,
2013-03-08 19:23:00,77.2,63.7,30.04,West,275,0.0,0.0,63,0.00,,,0.08,0.0,meteohub,2013-03-08 23:23:00,
2013-03-08 19:28:00,77.4,64.2,30.05,West,275,0.0,0.0,64,0.00,,,0.08,0.0,meteohub,2013-03-08 23:28:00,
2013-03-08 19:33:00,77.4,64.2,30.05,West,275,0.0,0.0,64,0.00,,,0.08,0.0,meteohub,2013-03-08 23:33:00,
2013-03-08 19:38:00,77.5,64.4,30.05,West,275,0.0,0.0,64,0.00,,,0.08,0.0,meteohub,2013-03-08 23:38:00,
2013-03-08 19:43:00,77.5,64.8,30.05,West,275,0.0,0.0,65,0.00,,,0.08,0.0,meteohub,2013-03-08 23:43:00,
2013-03-08 19:48:00,77.5,65.3,30.05,West,275,0.0,0.0,66,0.00,,,0.08,0.0,meteohub,2013-03-08 23:48:00,
2013-03-08 19:53:00,77.5,65.7,30.05,West,275,0.0,0.0,67,0.00,,,0.08,0.0,meteohub,2013-03-08 23:53:00,
2013-03-08 19:59:00,77.4,65.5,30.05,West,275,0.0,0.0,67,0.00,,,0.08,0.0,meteohub,2013-03-08 23:59:00,
2013-03-08 20:04:00,77.2,65.8,30.05,West,274,0.0,0.0,68,0.00,,,0.08,0.0,meteohub,2013-03-09 00:04:00,
2013-03-08 20:09:00,76.8,66.2,30.05,West,275,0.0,0.0,70,0.00,,,0.08,0.0,meteohub,2013-03-09 00:09:00,
2013-03-08 20:14:00,76.5,66.4,30.05,West,275,0.0,0.0,71,0.00,,,0.08,0.0,meteohub,2013-03-09 00:14:00,
2013-03-08 20:19:00,76.3,66.6,30.05,West,274,0.0,0.0,72,0.00,,,0.08,0.0,meteohub,2013-03-09 00:19:00,
2013-03-08 20:24:00,76.1,66.4,30.05,West,275,0.0,1.0,72,0.00,,,0.08,0.0,meteohub,2013-03-09 00:24:00,
2013-03-08 20:29:00,75.9,66.2,30.05,West,277,0.0,1.0,72,0.00,,,0.08,0.0,meteohub,2013-03-09 00:29:00,
2013-03-08 20:34:00,75.9,66.2,30.05,West,274,0.0,0.0,72,0.00,,,0.08,0.0,meteohub,2013-03-09 00:34:00,
2013-03-08 20:39:00,75.7,66.4,30.05,West,275,0.0,0.0,73,0.00,,,0.08,0.0,meteohub,2013-03-09 00:39:00,
2013-03-08 20:44:00,75.7,66.4,30.05,West,277,0.0,0.0,73,0.00,,,0.08,0.0,meteohub,2013-03-09 00:44:00,
2013-03-08 20:49:00,75.6,66.4,30.05,West,274,0.0,0.0,73,0.00,,,0.08,0.0,meteohub,2013-03-09 00:49:00,
2013-03-08 20:54:00,75.6,66.4,30.05,West,275,0.0,0.0,73,0.00,,,0.08,0.0,meteohub,2013-03-09 00:54:00,
2013-03-08 20:59:00,75.4,65.7,30.05,West,275,0.0,0.0,72,0.00,,,0.08,0.0,meteohub,2013-03-09 00:59:00,
2013-03-08 21:04:00,75.4,66.2,30.05,West,275,0.0,0.0,73,0.00,,,0.08,0.0,meteohub,2013-03-09 01:04:00,
2013-03-08 21:09:00,75.4,66.6,30.05,West,274,0.0,0.0,74,0.00,,,0.08,0.0,meteohub,2013-03-09 01:09:00,
2013-03-08 21:14:00,75.4,66.9,30.05,West,275,0.0,0.0,75,0.00,,,0.08,0.0,meteohub,2013-03-09 01:14:00,
2013-03-08 21:19:00,75.4,66.9,30.05,West,275,0.0,0.0,75,0.00,,,0.08,0.0,meteohub,2013-03-09 01:19:00,
2013-03-08 21:24:00,75.0,67.3,30.05,West,274,0.0,0.0,77,0.00,,,0.08,0.0,meteohub,2013-03-09 01:24:00,
2013-03-08 21:29:00,75.0,67.3,30.06,West,274,0.0,0.0,77,0.00,,,0.08,0.0,meteohub,2013-03-09 01:29:00,
2013-03-08 21:34:00,74.8,67.5,30.06,West,275,0.0,0.0,78,0.00,,,0.08,0.0,meteohub,2013-03-09 01:34:00,
2013-03-08 21:39:00,74.8,67.5,30.06,West,275,0.0,0.0,78,0.00,,,0.08,0.0,meteohub,2013-03-09 01:39:00,
2013-03-08 21:44:00,74.7,67.6,30.06,West,275,0.0,1.0,79,0.00,,,0.08,0.0,meteohub,2013-03-09 01:44:00,
2013-03-08 21:49:00,74.7,67.6,30.06,West,277,0.0,1.0,79,0.00,,,0.08,0.0,meteohub,2013-03-09 01:49:00,
2013-03-08 21:54:00,74.7,67.6,30.06,West,275,0.0,0.0,79,0.00,,,0.08,0.0,meteohub,2013-03-09 01:54:00,
2013-03-08 21:59:00,74.7,68.0,30.06,West,275,0.0,0.0,80,0.00,,,0.08,0.0,meteohub,2013-03-09 01:59:00,
2013-03-08 22:04:00,74.5,67.8,30.06,West,275,0.0,0.0,80,0.00,,,0.08,0.0,meteohub,2013-03-09 02:04:00,
2013-03-08 22:10:00,74.5,67.8,30.06,West,274,0.0,0.0,80,0.00,,,0.08,0.0,meteohub,2013-03-09 02:10:00,
2013-03-08 22:15:00,74.1,68.0,30.06,West,274,0.0,0.0,81,0.00,,,0.08,0.0,meteohub,2013-03-09 02:15:00,
2013-03-08 22:20:00,73.9,67.8,30.06,West,275,0.0,0.0,81,0.00,,,0.08,0.0,meteohub,2013-03-09 02:20:00,
2013-03-08 22:25:00,73.9,67.8,30.06,West,277,0.0,1.0,81,0.00,,,0.08,0.0,meteohub,2013-03-09 02:25:00,
2013-03-08 22:30:00,73.8,67.6,30.06,West,275,0.0,1.0,81,0.00,,,0.08,0.0,meteohub,2013-03-09 02:30:00,
2013-03-08 22:35:00,73.6,67.5,30.06,West,275,0.0,1.0,81,0.00,,,0.08,0.0,meteohub,2013-03-09 02:35:00,
2013-03-08 22:40:00,73.2,67.1,30.06,West,275,0.0,0.0,81,0.00,,,0.08,0.0,meteohub,2013-03-09 02:40:00,
2013-03-08 22:45:00,73.6,67.5,30.05,West,274,0.0,0.0,81,0.00,,,0.08,0.0,meteohub,2013-03-09 02:45:00,
2013-03-08 22:50:00,73.2,67.1,30.05,West,275,0.0,0.0,81,0.00,,,0.08,0.0,meteohub,2013-03-09 02:50:00,
2013-03-08 22:55:00,73.2,67.1,30.05,West,275,0.0,0.0,81,0.00,,,0.08,0.0,meteohub,2013-03-09 02:55:00,
2013-03-08 23:00:00,73.2,67.5,30.05,West,277,0.0,0.0,82,0.00,,,0.08,0.0,meteohub,2013-03-09 03:00:00,
2013-03-08 23:05:00,73.2,67.5,30.05,West,274,0.0,0.0,82,0.00,,,0.08,0.0,meteohub,2013-03-09 03:05:00,
2013-03-08 23:10:00,73.0,67.3,30.05,West,274,0.0,0.0,82,0.00,,,0.08,0.0,meteohub,2013-03-09 03:10:00,
2013-03-08 23:16:00,73.0,67.3,30.05,West,274,0.0,0.0,82,0.00,,,0.08,0.0,meteohub,2013-03-09 03:16:00,
2013-03-08 23:21:00,73.0,67.3,30.05,West,274,0.0,0.0,82,0.00,,,0.08,0.0,meteohub,2013-03-09 03:21:00,
2013-03-08 23:26:00,72.9,67.5,30.05,West,274,0.0,0.0,83,0.00,,,0.08,0.0,meteohub,2013-03-09 03:26:00,
2013-03-08 23:31:00,72.9,67.5,30.05,West,274,0.0,0.0,83,0.00,,,0.08,0.0,meteohub,2013-03-09 03:31:00,
2013-03-08 23:36:00,72.7,67.3,30.05,West,275,0.0,0.0,83,0.00,,,0.08,0.0,meteohub,2013-03-09 03:36:00,
2013-03-08 23:41:00,72.9,67.5,30.05,West,275,0.0,0.0,83,0.00,,,0.08,0.0,meteohub,2013-03-09 03:41:00,
2013-03-08 23:46:00,72.7,67.3,30.05,West,274,0.0,0.0,83,0.00,,,0.08,0.0,meteohub,2013-03-09 03:46:00,
2013-03-08 23:51:00,72.7,67.3,30.05,West,275,0.0,0.0,83,0.00,,,0.08,0.0,meteohub,2013-03-09 03:51:00,
2013-03-08 23:56:00,72.7,67.3,30.05,West,275,0.0,0.0,83,0.00,,,0.08,0.0,meteohub,2013-03-09 03:56:00,